Total_Precipitation_Accumulation
0.00 0.00 0.00 0.00 0.00 0.00 0.00 0.00 0.00 0.00 0.00 0.00 0.01 0.03 0.06 0.07 0.08 0.10 0.10 0.12 0.15 0.15 0.18 0.22 0.24 0.26 0.33 0.35 0.38 0.37 0.33 0.37 0.37 0.09 0.02 0.04 0.12 0.20 0.19 0.14 0.14 0.13 0.11
0.00 0.00 0.00 0.00 0.00 0.00 0.00 0.00 0.00 0.00 0.00 0.00 0.02 0.05 0.09 0.11 0.11 0.14 0.15 0.15 0.18 0.19 0.21 0.25 0.28 0.30 0.36 0.40 0.48 0.49 0.41 0.35 0.39 0.24 0.06 0.04 0.12 0.23 0.26 0.20 0.17 0.15 0.11
0.00 0.00 0.00 0.00 0.00 0.00 0.00 0.00 0.00 0.00 0.00 0.00 0.02 0.07 0.15 0.21 0.19 0.16 0.20 0.21 0.20 0.22 0.25 0.31 0.35 0.39 0.38 0.41 0.51 0.55 0.49 0.41 0.40 0.35 0.16 0.07 0.10 0.22 0.32 0.30 0.25 0.23 0.17
0.00 0.00 0.00 0.00 0.00 0.00 0.00 0.00 0.00 0.00 0.00 0.01 0.02 0.06 0.17 0.30 0.33 0.34 0.37 0.32 0.26 0.21 0.19 0.24 0.36 0.49 0.54 0.58 0.59 0.57 0.58 0.57 0.51 0.45 0.30 0.17 0.15 0.22 0.38 0.43 0.36 0.32 0.27
0.00 0.00 0.00 0.00 0.00 0.00 0.00 0.00 0.00 0.00 0.00 0.01 0.01 0.03 0.14 0.40 0.65 0.82 0.74 0.47 0.31 0.23 0.17 0.19 0.31 0.51 0.67 0.85 0.90 0.79 0.77 0.81 0.73 0.65 0.54 0.39 0.29 0.32 0.42 0.47 0.51 0.43 0.40
0.00 0.00 0.00 0.00 0.00 0.00 0.00 0.00 0.00 0.00 0.01 0.01 0.01 0.02 0.08 0.36 0.73 0.96 0.70 0.37 0.26 0.22 0.20 0.20 0.27 0.47 0.60 0.68 0.78 0.79 0.83 0.96 1.00 0.91 0.76 0.61 0.44 0.37 0.40 0.49 0.60 0.63 0.55
0.00 0.00 0.00 0.00 0.00 0.00 0.00 0.00 0.00 0.01 0.01 0.01 0.01 0.02 0.03 0.19 0.56 0.83 0.57 0.28 0.20 0.19 0.19 0.18 0.22 0.34 0.45 0.53 0.56 0.56 0.60 0.73 0.92 1.00 0.93 0.71 0.58 0.47 0.51 0.56 0.58 0.66 0.62
0.00 0.00 0.00 0.00 0.00 0.00 0.00 0.00 0.01 0.01 0.01 0.01 0.02 0.02 0.02 0.09 0.43 0.71 0.51 0.25 0.17 0.16 0.17 0.15 0.12 0.20 0.33 0.49 0.58 0.54 0.51 0.59 0.81 0.98 1.10 0.95 0.78 0.73 0.81 0.86 0.82 0.71 0.66
0.00 0.00 0.00 0.00 0.00 0.00 0.00 0.01 0.01 0.01 0.02 0.02 0.02 0.02 0.02 0.04 0.28 0.67 0.54 0.24 0.15 0.14 0.16 0.14 0.10 0.12 0.24 0.38 0.41 0.38 0.34 0.44 0.56 0.73 0.81 0.78 0.71 0.77 0.93 1.11 1.07 0.89 0.81
0.00 0.00 0.00 0.00 0.00 0.00 0.01 0.01 0.01 0.01 0.02 0.02 0.02 0.02 0.02 0.02 0.15 0.55 0.61 0.26 0.15 0.12 0.13 0.12 0.13 0.16 0.22 0.26 0.26 0.29 0.36 0.40 0.38 0.40 0.41 0.41 0.43 0.49 0.69 0.99 1.19 1.11 0.96
0.00 0.00 0.00 0.00 0.00 0.01 0.01 0.01 0.02 0.02 0.02 0.02 0.02 0.02 0.02 0.02 0.06 0.33 0.59 0.37 0.21 0.13 0.13 0.14 0.10 0.15 0.18 0.17 0.18 0.23 0.38 0.32 0.25 0.28 0.30 0.30 0.32 0.41 0.57 0.79 1.05 1.27 1.21
0.00 0.00 0.00 0.00 0.00 0.01 0.01 0.02 0.02 0.03 0.03 0.03 0.03 0.03 0.02 0.02 0.07 0.23 0.36 0.33 0.25 0.13 0.13 0.12 0.08 0.10 0.10 0.11 0.14 0.19 0.20 0.18 0.19 0.21 0.20 0.23 0.30 0.39 0.52 0.68 0.88 1.11 1.26
0.00 0.00 0.00 0.00 0.00 0.01 0.02 0.03 0.03 0.04 0.06 0.06 0.06 0.05 0.03 0.03 0.10 0.22 0.18 0.14 0.18 0.17 0.21 0.17 0.07 0.06 0.07 0.06 0.09 0.12 0.14 0.16 0.20 0.20 0.19 0.21 0.29 0.39 0.44 0.51 0.60 0.80 0.98
0.00 0.00 0.00 0.00 0.01 0.02 0.03 0.04 0.05 0.08 0.16 0.15 0.12 0.08 0.05 0.07 0.22 0.33 0.18 0.08 0.10 0.18 0.20 0.13 0.08 0.08 0.07 0.05 0.04 0.05 0.08 0.11 0.15 0.18 0.19 0.19 0.19 0.24 0.33 0.45 0.53 0.62 0.79
0.00 0.00 0.00 0.01 0.02 0.03 0.03 0.04 0.06 0.09 0.21 0.25 0.18 0.15 0.16 0.24 0.35 0.34 0.21 0.14 0.13 0.18 0.18 0.16 0.12 0.11 0.11 0.09 0.06 0.04 0.03 0.05 0.08 0.11 0.14 0.16 0.17 0.20 0.26 0.36 0.51 0.60 0.73
0.00 0.01 0.01 0.02 0.02 0.03 0.04 0.04 0.05 0.07 0.11 0.11 0.11 0.16 0.16 0.26 0.27 0.19 0.16 0.12 0.13 0.13 0.17 0.17 0.12 0.09 0.09 0.08 0.07 0.05 0.03 0.03 0.03 0.06 0.10 0.14 0.19 0.23 0.26 0.30 0.43 0.57 0.72
0.01 0.01 0.02 0.02 0.03 0.04 0.05 0.06 0.06 0.05 0.05 0.05 0.06 0.09 0.15 0.19 0.17 0.14 0.12 0.10 0.10 0.13 0.17 0.12 0.08 0.07 0.07 0.07 0.06 0.05 0.04 0.02 0.02 0.04 0.07 0.11 0.15 0.20 0.24 0.28 0.36 0.49 0.63
0.01 0.01 0.02 0.03 0.04 0.05 0.07 0.08 0.08 0.09 0.08 0.05 0.04 0.06 0.11 0.14 0.14 0.12 0.11 0.13 0.14 0.12 0.12 0.10 0.08 0.07 0.07 0.07 0.06 0.06 0.04 0.03 0.03 0.03 0.04 0.06 0.10 0.16 0.21 0.26 0.33 0.46 0.57
0.01 0.02 0.03 0.03 0.04 0.05 0.06 0.07 0.08 0.09 0.09 0.07 0.06 0.06 0.08 0.10 0.10 0.10 0.12 0.16 0.13 0.10 0.08 0.08 0.08 0.08 0.07 0.07 0.06 0.05 0.05 0.03 0.03 0.02 0.03 0.04 0.06 0.11 0.17 0.22 0.29 0.38 0.47
0.01 0.03 0.04 0.04 0.04 0.06 0.08 0.09 0.10 0.11 0.11 0.10 0.09 0.10 0.17 0.17 0.15 0.12 0.13 0.14 0.12 0.09 0.07 0.08 0.07 0.08 0.08 0.07 0.06 0.06 0.05 0.03 0.03 0.02 0.02 0.02 0.04 0.08 0.14 0.19 0.26 0.33 0.40
0.01 0.02 0.04 0.05 0.06 0.08 0.10 0.12 0.13 0.15 0.14 0.12 0.10 0.11 0.23 0.23 0.15 0.12 0.12 0.12 0.13 0.11 0.10 0.09 0.08 0.08 0.08 0.08 0.07 0.06 0.05 0.03 0.03 0.03 0.03 0.02 0.03 0.05 0.09 0.15 0.22 0.29 0.36
0.02 0.02 0.04 0.06 0.08 0.10 0.11 0.12 0.14 0.15 0.15 0.13 0.11 0.09 0.14 0.16 0.15 0.14 0.13 0.12 0.11 0.11 0.11 0.11 0.10 0.10 0.11 0.11 0.10 0.08 0.06 0.04 0.03 0.03 0.03 0.03 0.03 0.04 0.06 0.10 0.16 0.23 0.31
0.03 0.05 0.06 0.08 0.09 0.12 0.14 0.14 0.15 0.16 0.15 0.14 0.13 0.12 0.12 0.14 0.14 0.14 0.14 0.12 0.11 0.10 0.10 0.11 0.11 0.10 0.11 0.11 0.10 0.10 0.09 0.06 0.05 0.06 0.07 0.06 0.04 0.04 0.05 0.08 0.12 0.19 0.27
0.05 0.08 0.10 0.11 0.13 0.15 0.17 0.17 0.16 0.16 0.15 0.15 0.14 0.13 0.12 0.13 0.12 0.12 0.12 0.12 0.12 0.11 0.11 0.12 0.12 0.12 0.13 0.12 0.10 0.08 0.08 0.08 0.09 0.10 0.09 0.08 0.06 0.05 0.05 0.07 0.10 0.15 0.22
0.07 0.09 0.12 0.15 0.18 0.20 0.20 0.19 0.17 0.16 0.15 0.15 0.14 0.14 0.13 0.13 0.12 0.11 0.10 0.10 0.11 0.10 0.10 0.12 0.14 0.15 0.14 0.13 0.12 0.10 0.09 0.10 0.14 0.17 0.14 0.10 0.07 0.06 0.06 0.07 0.09 0.12 0.17
0.09 0.11 0.14 0.18 0.21 0.22 0.22 0.21 0.19 0.17 0.18 0.16 0.15 0.15 0.15 0.14 0.12 0.10 0.10 0.11 0.12 0.11 0.10 0.11 0.13 0.15 0.15 0.15 0.13 0.11 0.11 0.13 0.15 0.13 0.11 0.09 0.07 0.05 0.05 0.07 0.08 0.11 0.16